Regional Weather Roundup
Issued by NWS

Home | Current Version | Previous Version | Text Only | Print | Product List | Glossary Off
Versions: 1 2 3 4 5 6 7 8 9 10 11 12 13 14 15 16 17 18 19 20 21 22 23 24 25 26 27 28 29 30 31 32 33 34 35 36 37 38 39 40 41 42 43 44 45 46 47 48 49 50

726
ASUS43 KIND 240109
RWRIN

WEATHER ROUNDUP FOR INDIANA
NATIONAL WEATHER SERVICE INDIANAPOLIS IN
900 PM EDT TUE AUG 23 2016

NOTE: "FAIR" INDICATES FEW OR NO CLOUDS BELOW 12,000 FEET WITH NO
SIGNIFICANT WEATHER AND/OR OBSTRUCTIONS TO VISIBILITY.

* - STATION DOES NOT REPORT WEATHER SUCH AS PRECIPITATION OR FOG.

+ - STATION NOT QUALITY CONTROLLED BY THE NATIONAL WEATHER SERVICE.
    USE DATA WITH CAUTION...ESPECIALLY DEWPOINT AND RELATIVE
    HUMIDITY OBSERVATIONS.

INZ001>003-010>013-019-020-240200-
NORTHWEST INDIANA

CITY           SKY/WX    TMP DP  RH WIND       PRES   REMARKS
GARY /AIRPORT/ PTCLDY    77  63  61 SE5       30.15S
KNOX *+        PTCLDY    68  45  42 S5        30.17F
LA PORTE +     PTCLDY    73  63  72 S3        30.17F
MICHIGAN CITY+ CLEAR     70  63  78 MISG      30.16F
MONTICELLO +   PTCLDY    72  60  65 SE3       30.17F
RENSSELAER +   PTCLDY    70  64  83 SE3       30.16F
VALPARAISO     PTCLDY    72  62  71 S5        30.16F

$$

LMZ046-743>745-240200-
SOUTHERN LAKE MICHIGAN

STATION/POSITION TIME  TEMP    WIND        PRES    WAVE
                       AIR SEA DIR/SP/G            HT
                 (UTC) (F)     (DEG/KT/KT) (MB)    (FT)
BURNS HARBOR     0000   78     180/  8/ 14 1021.3F
5NW MICH CITY    0100   75 73  180/  8/ 10   N/A     1

$$

INZ004-005-014>016-021>024-240200-
NORTH CENTRAL INDIANA

CITY           SKY/WX    TMP DP  RH WIND       PRES   REMARKS
ELKHART        PTCLDY    73  59  60 S6        30.18F
GOSHEN         PTCLDY    71  59  65 SE6       30.18F
LOGANSPORT +   CLOUDY    70  63  78 S3        30.19F
PERU/GRISSOM   PTCLDY    70  63  77 S6        30.18F
ROCHESTER +    PTCLDY    73  64  73 S3        30.18F
SOUTH BEND     CLEAR     72  61  68 S7        30.18S
WARSAW +       PTCLDY    72  61  68 CALM      30.19F

$$

INZ006>009-017-018-025>027-240200-
NORTHEAST INDIANA

CITY           SKY/WX    TMP DP  RH WIND       PRES   REMARKS
ANGOLA *+      CLEAR     66  59  77 CALM      30.21S
AUBURN +       PTCLDY    70  59  68 CALM      30.21F
FORT WAYNE     MOCLDY    70  61  73 S6        30.21S
HUNTINGTON +   PTCLDY   N/A N/A N/A CALM      30.20F

$$

INZ028-029-035-036-043>045-051>053-240200-
WEST CENTRAL INDIANA

CITY           SKY/WX    TMP DP  RH WIND       PRES   REMARKS
CRAWFORDSVL +  CLOUDY    67  67 100 SE3       30.18F
GREENCASTLE +  CLOUDY    70  70 100 CALM      30.19F
LAFAYETTE      PTCLDY    71  63  75 CALM      30.16F
TERRE HAUTE    CLOUDY    73  65  75 SE3       30.17F

$$

INZ030>032-037>040-046>048-054>057-064-065-240200-
CENTRAL INDIANA

CITY           SKY/WX    TMP DP  RH WIND       PRES   REMARKS
COLUMBUS       CLEAR     70  68  94 CALM      30.20F
INDIANAPOLIS   CLOUDY    73  63  70 SE7       30.18F
-EAGLE CREEK   CLOUDY    75  61  61 SE3       30.19F
KOKOMO *+      CLOUDY    66  59  77 S6        30.20S
MARION +       PTCLDY    69  62  77 S5        30.21S
MT COMFORT *+  PTCLDY    68  63  83 SE3       30.22S
SHELBYVILLE    PTCLDY    70  64  81 E5        30.20F
ZIONSVILLE +   CLOUDY    66  63  90 CALM      30.21S

$$

INZ033-034-041-042-049-050-058-059-240200-
EAST CENTRAL INDIANA

CITY           SKY/WX    TMP DP  RH WIND       PRES   REMARKS
MUNCIE         PTCLDY    74  61  63 S3        30.21F

$$

INZ060-061-067>069-081>083-085>088-240200-
SOUTHWEST INDIANA

CITY           SKY/WX    TMP DP  RH WIND       PRES   REMARKS
EVANSVILLE     CLOUDY    77  68  73 CALM      30.17F
HUNTINGBURG *+ CLOUDY    73  66  78 E5        30.18F
WASHINGTON +   CLOUDY    72  70  93 MISG      30.17F

$$

INZ062-063-066-070>080-084-089>092-240200-
SOUTH CENTRAL AND SOUTHEAST INDIANA

CITY           SKY/WX    TMP DP  RH WIND       PRES   REMARKS
BLOOMINGTON    CLOUDY    69  66  90 CALM      30.19F
MADISON *+     CLOUDY    70  64  83 CALM      30.23S

$$





USA.gov is the U.S. government's official web portal to all federal, state and local government web resources and services.